{"data":{"norad_id":56025,"intl_designator":"2023-042AR","name":"STARLINK-5766","alt_names":[],"object_type":"PAYLOAD","status":"ACTIVE","operator":null,"country":"US","launch_date":"2023-03-24","launch_site_code":"AFETR","launch_vehicle":null,"mission":null,"orbit_class":"UNKNOWN","rcs_meters":null,"size_class":null,"mass_kg":null,"dimensions":null,"purposes":["comms"],"wikipedia_slug":null,"has_3d_model":false,"image_url":null,"decayed_at":null,"tle_current":{"epoch":"2026-05-24T22:43:55.098336Z","epoch_age_seconds":86882,"freshness":"FRESH","line1":"1 56025U 23042AR  26144.94716549  .00000006  00000+0  97432-5 0  9996","line2":"2 56025  43.0027 334.9362 0001011 254.2806 105.7934 15.27578162174696","mean_motion":15.27578162,"eccentricity":0.0001011,"inclination_deg":43.0027,"raan_deg":334.9362,"arg_perigee_deg":254.2806,"mean_anomaly_deg":105.7934,"bstar":9.7432e-6,"rev_number":17469,"period_min":94.266862136512,"perigee_km":482.36093320766,"apogee_km":483.74826614912,"semimajor_km":6861.1915996784,"source":"CELESTRAK","updated_at":"2026-05-25T13:38:17.949454Z"}}}